"Sample Date","Sample Time","Sensor Name","Sample Value","Units","Flow Rate","Sample Interval","Sample Volume","Laser Status","Number Channels","Micron Size 0","Counts/Channel 0","Micron Size 1","Counts/Channel 1","Micron Size 2","Counts/Channel 2","Micron Size 3","Counts/Channel 3","Micron Size 4","Counts/Channel 4","Micron Size 5","Counts/Channel 5","Micron Size 6","Counts/Channel 6","Micron Size 7","Counts/Channel 7","Micron Size 8","Counts/Channel 8","Micron Size 9","Counts/Channel 9","Micron Size 10","Counts/Channel 10","Micron Size 11","Counts/Channel 11","Micron Size 12","Counts/Channel 12","Micron Size 13","Counts/Channel 13","Micron Size 14","Counts/Channel 14","Micron Size 15","Counts/Channel 15","Micron Size 16","Counts/Channel 16","Micron Size 17","Counts/Channel 17","Micron Size 18","Counts/Channel 18","Micron Size 19","Counts/Channel 19","Micron Size 20","Counts/Channel 20","Micron Size 21","Counts/Channel 21","Micron Size 22","Counts/Channel 22","Micron Size 23","Counts/Channel 23","Micron Size 24","Counts/Channel 24","Micron Size 25","Counts/Channel 25","Micron Size 26","Counts/Channel 26","Micron Size 27","Counts/Channel 27","Micron Size 28","Counts/Channel 28","Micron Size 29","Counts/Channel 29","Micron Size 30","Counts/Channel 30","Micron Size 31","Counts/Channel 31"
"07/04/06","02:00:02","AMMA06",68019.000,"cc",28307.986,6.00,2830.799,1,6,0.100,31576.000,0.200,28869.000,0.300,5055.000,0.500,1562.000,1.000,957.000,5.000,0
"07/04/06","02:00:08","AMMA06",67665.000,"cc",28299.061,6.00,2829.906,1,6,0.100,31512.000,0.200,28459.000,0.300,5069.000,0.500,1580.000,1.000,1044.000,5.000,1.000
"07/04/06","02:00:14","AMMA06",67693.000,"cc",28347.061,6.00,2834.706,1,6,0.100,31540.000,0.200,28540.000,0.300,5063.000,0.500,1526.000,1.000,1024.000,5.000,0
"07/04/06","02:00:20","AMMA06",67810.000,"cc",28312.781,6.00,2831.278,1,6,0.100,31652.000,0.200,28511.000,0.300,5163.000,0.500,1544.000,1.000,939.000,5.000,1.000
"07/04/06","02:00:26","AMMA06",67289.000,"cc",28338.482,6.00,2833.848,1,6,0.100,31448.000,0.200,28359.000,0.300,4994.000,0.500,1533.000,1.000,954.000,5.000,1.000
"07/04/06","02:00:32","AMMA06",66678.000,"cc",28317.299,6.00,2831.730,1,6,0.100,30963.000,0.200,28220.000,0.300,5017.000,0.500,1554.000,1.000,924.000,5.000,0
"07/04/06","02:00:38","AMMA06",67114.000,"cc",28304.643,6.00,2830.464,1,6,0.100,31249.000,0.200,28328.000,0.300,5082.000,0.500,1502.000,1.000,951.000,5.000,2.000
"07/04/06","02:00:44","AMMA06",67758.000,"cc",28330.643,6.00,2833.065,1,6,0.100,31629.000,0.200,28639.000,0.300,4963.000,0.500,1506.000,1.000,1020.000,5.000,1.000
"07/04/06","02:00:50","AMMA06",67316.000,"cc",28296.881,6.00,2829.688,1,6,0.100,31322.000,0.200,28393.000,0.300,5087.000,0.500,1555.000,1.000,958.000,5.000,1.000
"07/04/06","02:00:56","AMMA06",67725.000,"cc",28360.398,6.00,2836.040,1,6,0.100,31564.000,0.200,28499.000,0.300,5111.000,0.500,1540.000,1.000,1011.000,5.000,0
"07/04/06","02:01:02","AMMA06",67466.000,"cc",28340.830,6.00,2834.083,1,6,0.100,31380.000,0.200,28399.000,0.300,5133.000,0.500,1563.000,1.000,991.000,5.000,0
"07/04/06","02:01:08","AMMA06",67754.000,"cc",28281.641,6.00,2828.164,1,6,0.100,31540.000,0.200,28703.000,0.300,5002.000,0.500,1524.000,1.000,985.000,5.000,0
"07/04/06","02:01:14","AMMA06",67089.000,"cc",28256.104,6.00,2825.611,1,6,0.100,31255.000,0.200,28258.000,0.300,5049.000,0.500,1536.000,1.000,991.000,5.000,0
"07/04/06","02:01:20","AMMA06",67878.000,"cc",28346.041,6.00,2834.604,1,6,0.100,31507.000,0.200,28692.000,0.300,5107.000,0.500,1610.000,1.000,961.000,5.000,1.000
"07/04/06","02:01:26","AMMA06",67419.000,"cc",28325.072,6.00,2832.507,1,6,0.100,31264.000,0.200,28665.000,0.300,5070.000,0.500,1477.000,1.000,943.000,5.000,0
"07/04/06","02:01:32","AMMA06",67595.000,"cc",28284.340,6.00,2828.434,1,6,0.100,31520.000,0.200,28519.000,0.300,5044.000,0.500,1471.000,1.000,1039.000,5.000,2.000
"07/04/06","02:01:38","AMMA06",67577.000,"cc",28333.941,6.00,2833.394,1,6,0.100,31131.000,0.200,28797.000,0.300,5174.000,0.500,1509.000,1.000,966.000,5.000,0
"07/04/06","02:01:44","AMMA06",67760.000,"cc",28357.338,6.00,2835.734,1,6,0.100,31186.000,0.200,28889.000,0.300,5095.000,0.500,1603.000,1.000,987.000,5.000,0
"07/04/06","02:01:50","AMMA06",67117.000,"cc",28287.455,6.00,2828.746,1,6,0.100,31344.000,0.200,28231.000,0.300,5076.000,0.500,1487.000,1.000,978.000,5.000,1.000
"07/04/06","02:01:56","AMMA06",67396.000,"cc",28319.799,6.00,2831.980,1,6,0.100,30942.000,0.200,28879.000,0.300,5046.000,0.500,1554.000,1.000,975.000,5.000,0
"07/04/06","02:02:02","AMMA06",68020.000,"cc",28306.113,6.00,2830.612,1,6,0.100,31546.000,0.200,28962.000,0.300,5044.000,0.500,1503.000,1.000,965.000,5.000,0
"07/04/06","02:02:08","AMMA06",67840.000,"cc",28340.926,6.00,2834.093,1,6,0.100,31246.000,0.200,29015.000,0.300,5138.000,0.500,1481.000,1.000,960.000,5.000,0
"07/04/06","02:02:14","AMMA06",67394.000,"cc",28294.459,6.00,2829.446,1,6,0.100,31144.000,0.200,28648.000,0.300,5094.000,0.500,1483.000,1.000,1024.000,5.000,1.000
"07/04/06","02:02:20","AMMA06",67469.000,"cc",28319.580,6.00,2831.958,1,6,0.100,31196.000,0.200,28612.000,0.300,5078.000,0.500,1570.000,1.000,1013.000,5.000,0
"07/04/06","02:02:26","AMMA06",67951.000,"cc",28303.133,6.00,2830.314,1,6,0.100,31043.000,0.200,29047.000,0.300,5301.000,0.500,1543.000,1.000,1017.000,5.000,0
"07/04/06","02:02:32","AMMA06",67936.000,"cc",28310.143,6.00,2831.014,1,6,0.100,31548.000,0.200,28591.000,0.300,5247.000,0.500,1543.000,1.000,1007.000,5.000,0
"07/04/06","02:02:38","AMMA06",68051.000,"cc",28320.223,6.00,2832.023,1,6,0.100,31404.000,0.200,28913.000,0.300,5190.000,0.500,1542.000,1.000,1002.000,5.000,0
"07/04/06","02:02:44","AMMA06",67557.000,"cc",28336.709,6.00,2833.671,1,6,0.100,31269.000,0.200,28622.000,0.300,5100.000,0.500,1528.000,1.000,1038.000,5.000,0
"07/04/06","02:02:50","AMMA06",67652.000,"cc",28368.318,6.00,2836.832,1,6,0.100,31018.000,0.200,28803.000,0.300,5275.000,0.500,1555.000,1.000,998.000,5.000,3.000
"07/04/06","02:02:56","AMMA06",67511.000,"cc",28267.303,6.00,2826.731,1,6,0.100,30956.000,0.200,28673.000,0.300,5337.000,0.500,1527.000,1.000,1017.000,5.000,1.000
"07/04/06","02:03:02","AMMA06",67716.000,"cc",28311.322,6.00,2831.132,1,6,0.100,31104.000,0.200,28880.000,0.300,5300.000,0.500,1488.000,1.000,944.000,5.000,0
"07/04/06","02:03:08","AMMA06",67898.000,"cc",28348.344,6.00,2834.835,1,6,0.100,31087.000,0.200,28951.000,0.300,5361.000,0.500,1499.000,1.000,1000.000,5.000,0
"07/04/06","02:03:14","AMMA06",67909.000,"cc",28277.750,6.00,2827.775,1,6,0.100,31156.000,0.200,28935.000,0.300,5249.000,0.500,1572.000,1.000,996.000,5.000,1.000
"07/04/06","02:03:20","AMMA06",68160.000,"cc",28309.830,6.00,2830.983,1,6,0.100,31090.000,0.200,29203.000,0.300,5306.000,0.500,1530.000,1.000,1031.000,5.000,0
"07/04/06","02:03:26","AMMA06",67695.000,"cc",28290.908,6.00,2829.091,1,6,0.100,31201.000,0.200,28818.000,0.300,5092.000,0.500,1578.000,1.000,1006.000,5.000,0
"07/04/06","02:03:32","AMMA06",68352.000,"cc",28302.227,6.00,2830.223,1,6,0.100,31342.000,0.200,29348.000,0.300,5106.000,0.500,1554.000,1.000,1002.000,5.000,0
"07/04/06","02:03:38","AMMA06",68043.000,"cc",28346.629,6.00,2834.663,1,6,0.100,31304.000,0.200,28983.000,0.300,5224.000,0.500,1547.000,1.000,984.000,5.000,1.000
"07/04/06","02:03:44","AMMA06",67627.000,"cc",28354.940,6.00,2835.494,1,6,0.100,31009.000,0.200,28746.000,0.300,5322.000,0.500,1572.000,1.000,978.000,5.000,0
"07/04/06","02:03:50","AMMA06",67631.000,"cc",28289.701,6.00,2828.970,1,6,0.100,30862.000,0.200,28970.000,0.300,5247.000,0.500,1520.000,1.000,1030.000,5.000,2.000
"07/04/06","02:03:56","AMMA06",68058.000,"cc",28315.815,6.00,2831.582,1,6,0.100,31314.000,0.200,28981.000,0.300,5229.000,0.500,1500.000,1.000,1033.000,5.000,1.000
"07/04/06","02:04:02","AMMA06",68161.000,"cc",28328.731,6.00,2832.873,1,6,0.100,31182.000,0.200,29050.000,0.300,5406.000,0.500,1494.000,1.000,1028.000,5.000,1.000
"07/04/06","02:04:08","AMMA06",68381.000,"cc",28351.168,6.00,2835.117,1,6,0.100,31283.000,0.200,29211.000,0.300,5283.000,0.500,1557.000,1.000,1047.000,5.000,0
"07/04/06","02:04:14","AMMA06",67741.000,"cc",28337.906,6.00,2833.791,1,6,0.100,30933.000,0.200,29091.000,0.300,5213.000,0.500,1463.000,1.000,1039.000,5.000,2.000
"07/04/06","02:04:20","AMMA06",67275.000,"cc",28262.906,6.00,2826.291,1,6,0.100,30456.000,0.200,28967.000,0.300,5249.000,0.500,1574.000,1.000,1029.000,5.000,0
"07/04/06","02:04:26","AMMA06",68051.000,"cc",28226.865,6.00,2822.687,1,6,0.100,30887.000,0.200,29417.000,0.300,5280.000,0.500,1514.000,1.000,951.000,5.000,2.000
"07/04/06","02:04:32","AMMA06",68308.000,"cc",28357.973,6.00,2835.797,1,6,0.100,31150.000,0.200,29184.000,0.300,5370.000,0.500,1558.000,1.000,1046.000,5.000,0
"07/04/06","02:04:38","AMMA06",68020.000,"cc",28360.215,6.00,2836.022,1,6,0.100,30904.000,0.200,29141.000,0.300,5454.000,0.500,1511.000,1.000,1009.000,5.000,1.000
"07/04/06","02:04:44","AMMA06",68627.000,"cc",28365.098,6.00,2836.510,1,6,0.100,31458.000,0.200,29331.000,0.300,5270.000,0.500,1552.000,1.000,1013.000,5.000,3.000
"07/04/06","02:04:50","AMMA06",68321.000,"cc",28311.600,6.00,2831.160,1,6,0.100,31084.000,0.200,29435.000,0.300,5278.000,0.500,1572.000,1.000,951.000,5.000,1.000
"07/04/06","02:04:56","AMMA06",68332.000,"cc",28294.449,6.00,2829.445,1,6,0.100,31318.000,0.200,29135.000,0.300,5279.000,0.500,1576.000,1.000,1023.000,5.000,1.000
"07/04/06","02:05:02","AMMA06",68733.000,"cc",28281.109,6.00,2828.111,1,6,0.100,31572.000,0.200,29288.000,0.300,5293.000,0.500,1536.000,1.000,1042.000,5.000,2.000
"07/04/06","02:05:08","AMMA06",67895.000,"cc",28359.803,6.00,2835.981,1,6,0.100,31030.000,0.200,29110.000,0.300,5317.000,0.500,1430.000,1.000,1008.000,5.000,0
"07/04/06","02:05:14","AMMA06",68176.000,"cc",28336.738,6.00,2833.674,1,6,0.100,31300.000,0.200,29068.000,0.300,5306.000,0.500,1486.000,1.000,1015.000,5.000,1.000
"07/04/06","02:05:20","AMMA06",68312.000,"cc",28291.883,6.00,2829.189,1,6,0.100,31560.000,0.200,28876.000,0.300,5339.000,0.500,1503.000,1.000,1034.000,5.000,0
"07/04/06","02:05:26","AMMA06",68638.000,"cc",28324.275,6.00,2832.428,1,6,0.100,31532.000,0.200,29327.000,0.300,5225.000,0.500,1516.000,1.000,1038.000,5.000,0
"07/04/06","02:05:32","AMMA06",68358.000,"cc",28273.604,6.00,2827.361,1,6,0.100,31494.000,0.200,28948.000,0.300,5362.000,0.500,1498.000,1.000,1055.000,5.000,1.000
"07/04/06","02:05:38","AMMA06",68046.000,"cc",28291.098,6.00,2829.110,1,6,0.100,31250.000,0.200,29053.000,0.300,5220.000,0.500,1498.000,1.000,1025.000,5.000,0
"07/04/06","02:05:44","AMMA06",68779.000,"cc",28313.393,6.00,2831.339,1,6,0.100,31705.000,0.200,29283.000,0.300,5274.000,0.500,1547.000,1.000,970.000,5.000,0
"07/04/06","02:05:50","AMMA06",67975.000,"cc",28393.969,6.00,2839.397,1,6,0.100,31289.000,0.200,29138.000,0.300,5120.000,0.500,1452.000,1.000,975.000,5.000,1.000
"07/04/06","02:05:56","AMMA06",68377.000,"cc",28279.518,6.00,2827.952,1,6,0.100,31635.000,0.200,29035.000,0.300,5107.000,0.500,1570.000,1.000,1030.000,5.000,0
"07/04/06","02:06:02","AMMA06",68379.000,"cc",28266.522,6.00,2826.652,1,6,0.100,31570.000,0.200,29120.000,0.300,5166.000,0.500,1507.000,1.000,1015.000,5.000,1.000
"07/04/06","02:06:08","AMMA06",68430.000,"cc",28315.225,6.00,2831.523,1,6,0.100,31598.000,0.200,29047.000,0.300,5335.000,0.500,1467.000,1.000,982.000,5.000,1.000
"07/04/06","02:06:14","AMMA06",68403.000,"cc",28323.258,6.00,2832.326,1,6,0.100,31710.000,0.200,28922.000,0.300,5272.000,0.500,1498.000,1.000,998.000,5.000,3.000
"07/04/06","02:06:20","AMMA06",67942.000,"cc",28342.143,6.00,2834.214,1,6,0.100,31448.000,0.200,28772.000,0.300,5160.000,0.500,1560.000,1.000,1000.000,5.000,2.000
"07/04/06","02:06:26","AMMA06",68011.000,"cc",28301.844,6.00,2830.185,1,6,0.100,31582.000,0.200,28698.000,0.300,5170.000,0.500,1566.000,1.000,995.000,5.000,0
"07/04/06","02:06:32","AMMA06",68396.000,"cc",28316.227,6.00,2831.623,1,6,0.100,31739.000,0.200,28838.000,0.300,5219.000,0.500,1608.000,1.000,991.000,5.000,1.000
"07/04/06","02:06:38","AMMA06",68076.000,"cc",28395.613,6.00,2839.562,1,6,0.100,31632.000,0.200,28848.000,0.300,5093.000,0.500,1557.000,1.000,945.000,5.000,1.000
"07/04/06","02:06:44","AMMA06",68360.000,"cc",28325.975,6.00,2832.598,1,6,0.100,31957.000,0.200,28805.000,0.300,5032.000,0.500,1591.000,1.000,973.000,5.000,2.000
"07/04/06","02:06:50","AMMA06",67501.000,"cc",28222.713,6.00,2822.272,1,6,0.100,31462.000,0.200,28581.000,0.300,4956.000,0.500,1507.000,1.000,994.000,5.000,1.000
"07/04/06","02:06:56","AMMA06",68031.000,"cc",28314.627,6.00,2831.463,1,6,0.100,31633.000,0.200,28865.000,0.300,5111.000,0.500,1484.000,1.000,938.000,5.000,0
"07/04/06","02:07:02","AMMA06",68229.000,"cc",28353.785,6.00,2835.379,1,6,0.100,31925.000,0.200,28615.000,0.300,5016.000,0.500,1620.000,1.000,1052.000,5.000,1.000
"07/04/06","02:07:08","AMMA06",68450.000,"cc",28240.674,6.00,2824.068,1,6,0.100,31975.000,0.200,28879.000,0.300,5005.000,0.500,1593.000,1.000,997.000,5.000,1.000
"07/04/06","02:07:14","AMMA06",68617.000,"cc",28351.141,6.00,2835.114,1,6,0.100,31713.000,0.200,29379.000,0.300,4948.000,0.500,1575.000,1.000,1000.000,5.000,2.000
"07/04/06","02:07:20","AMMA06",68724.000,"cc",28268.318,6.00,2826.832,1,6,0.100,31877.000,0.200,29379.000,0.300,4940.000,0.500,1527.000,1.000,1000.000,5.000,1.000
"07/04/06","02:07:26","AMMA06",68874.000,"cc",28312.920,6.00,2831.292,1,6,0.100,32313.000,0.200,29045.000,0.300,4951.000,0.500,1523.000,1.000,1042.000,5.000,0
"07/04/06","02:07:32","AMMA06",68911.000,"cc",28337.406,6.00,2833.741,1,6,0.100,32325.000,0.200,29017.000,0.300,4991.000,0.500,1568.000,1.000,1007.000,5.000,3.000
"07/04/06","02:07:38","AMMA06",68306.000,"cc",28356.820,6.00,2835.682,1,6,0.100,31705.000,0.200,28902.000,0.300,5152.000,0.500,1580.000,1.000,965.000,5.000,2.000
"07/04/06","02:07:44","AMMA06",68511.000,"cc",28276.762,6.00,2827.676,1,6,0.100,32172.000,0.200,28786.000,0.300,4979.000,0.500,1572.000,1.000,1001.000,5.000,1.000
"07/04/06","02:07:50","AMMA06",68715.000,"cc",28361.404,6.00,2836.141,1,6,0.100,32035.000,0.200,29092.000,0.300,4974.000,0.500,1610.000,1.000,1003.000,5.000,1.000
"07/04/06","02:07:56","AMMA06",68815.000,"cc",28340.867,6.00,2834.087,1,6,0.100,31899.000,0.200,29295.000,0.300,5052.000,0.500,1556.000,1.000,1013.000,5.000,0
"07/04/06","02:08:02","AMMA06",68499.000,"cc",28318.539,6.00,2831.854,1,6,0.100,31955.000,0.200,28939.000,0.300,5125.000,0.500,1498.000,1.000,982.000,5.000,0
"07/04/06","02:08:08","AMMA06",68698.000,"cc",28292.158,6.00,2829.216,1,6,0.100,31980.000,0.200,29279.000,0.300,4911.000,0.500,1588.000,1.000,939.000,5.000,1.000
"07/04/06","02:08:14","AMMA06",68417.000,"cc",28261.693,6.00,2826.169,1,6,0.100,31506.000,0.200,29214.000,0.300,5108.000,0.500,1484.000,1.000,1104.000,5.000,1.000
"07/04/06","02:08:20","AMMA06",69168.000,"cc",28316.092,6.00,2831.609,1,6,0.100,31803.000,0.200,29626.000,0.300,5196.000,0.500,1535.000,1.000,1005.000,5.000,3.000
"07/04/06","02:08:26","AMMA06",69070.000,"cc",28366.580,6.00,2836.658,1,6,0.100,32264.000,0.200,29178.000,0.300,5089.000,0.500,1566.000,1.000,972.000,5.000,1.000
"07/04/06","02:08:32","AMMA06",68894.000,"cc",28256.815,6.00,2825.682,1,6,0.100,32034.000,0.200,29241.000,0.300,5118.000,0.500,1496.000,1.000,1005.000,5.000,0
"07/04/06","02:08:38","AMMA06",69004.000,"cc",28335.721,6.00,2833.572,1,6,0.100,31712.000,0.200,29590.000,0.300,5079.000,0.500,1532.000,1.000,1089.000,5.000,2.000
"07/04/06","02:08:44","AMMA06",68858.000,"cc",28329.541,6.00,2832.954,1,6,0.100,31745.000,0.200,29357.000,0.300,5258.000,0.500,1505.000,1.000,993.000,5.000,0
"07/04/06","02:08:50","AMMA06",68688.000,"cc",28329.658,6.00,2832.966,1,6,0.100,31657.000,0.200,29266.000,0.300,5204.000,0.500,1598.000,1.000,961.000,5.000,2.000
"07/04/06","02:08:56","AMMA06",68811.000,"cc",28329.717,6.00,2832.972,1,6,0.100,31587.000,0.200,29610.000,0.300,5147.000,0.500,1491.000,1.000,976.000,5.000,0
"07/04/06","02:09:02","AMMA06",68715.000,"cc",28337.508,6.00,2833.751,1,6,0.100,31439.000,0.200,29542.000,0.300,5149.000,0.500,1620.000,1.000,964.000,5.000,1.000
"07/04/06","02:09:08","AMMA06",69063.000,"cc",28272.400,6.00,2827.240,1,6,0.100,31736.000,0.200,29498.000,0.300,5271.000,0.500,1529.000,1.000,1028.000,5.000,1.000
"07/04/06","02:09:14","AMMA06",68662.000,"cc",28289.115,6.00,2828.912,1,6,0.100,31422.000,0.200,29442.000,0.300,5196.000,0.500,1540.000,1.000,1061.000,5.000,1.000
"07/04/06","02:09:20","AMMA06",69461.000,"cc",28336.656,6.00,2833.666,1,6,0.100,31888.000,0.200,29748.000,0.300,5278.000,0.500,1520.000,1.000,1027.000,5.000,0
"07/04/06","02:09:26","AMMA06",68766.000,"cc",28307.221,6.00,2830.722,1,6,0.100,31268.000,0.200,29733.000,0.300,5340.000,0.500,1488.000,1.000,936.000,5.000,1.000
"07/04/06","02:09:32","AMMA06",69140.000,"cc",28270.055,6.00,2827.006,1,6,0.100,31887.000,0.200,29461.000,0.300,5265.000,0.500,1512.000,1.000,1015.000,5.000,0
"07/04/06","02:09:38","AMMA06",68934.000,"cc",28337.123,6.00,2833.712,1,6,0.100,31481.000,0.200,29640.000,0.300,5350.000,0.500,1496.000,1.000,965.000,5.000,2.000
"07/04/06","02:09:44","AMMA06",68521.000,"cc",28307.275,6.00,2830.728,1,6,0.100,31442.000,0.200,29442.000,0.300,5193.000,0.500,1415.000,1.000,1026.000,5.000,3.000
"07/04/06","02:09:50","AMMA06",69231.000,"cc",28299.447,6.00,2829.945,1,6,0.100,31729.000,0.200,29802.000,0.300,5214.000,0.500,1491.000,1.000,995.000,5.000,0
"07/04/06","02:09:56","AMMA06",69310.000,"cc",28328.057,6.00,2832.806,1,6,0.100,31715.000,0.200,29845.000,0.300,5300.000,0.500,1459.000,1.000,991.000,5.000,0
"07/04/06","02:10:02","AMMA06",69597.000,"cc",28230.039,6.00,2823.004,1,6,0.100,31810.000,0.200,29952.000,0.300,5439.000,0.500,1395.000,1.000,999.000,5.000,2.000
"07/04/06","02:10:08","AMMA06",69155.000,"cc",28297.066,6.00,2829.707,1,6,0.100,31436.000,0.200,29875.000,0.300,5373.000,0.500,1508.000,1.000,962.000,5.000,1.000
"07/04/06","02:10:14","AMMA06",69001.000,"cc",28363.553,6.00,2836.356,1,6,0.100,31397.000,0.200,29806.000,0.300,5292.000,0.500,1513.000,1.000,992.000,5.000,1.000
"07/04/06","02:10:20","AMMA06",69826.000,"cc",28367.416,6.00,2836.742,1,6,0.100,31802.000,0.200,30036.000,0.300,5438.000,0.500,1529.000,1.000,1021.000,5.000,0
"07/04/06","02:10:26","AMMA06",69184.000,"cc",28341.338,6.00,2834.134,1,6,0.100,31536.000,0.200,29824.000,0.300,5224.000,0.500,1537.000,1.000,1063.000,5.000,0
"07/04/06","02:10:32","AMMA06",69100.000,"cc",28321.299,6.00,2832.130,1,6,0.100,31573.000,0.200,29735.000,0.300,5307.000,0.500,1493.000,1.000,992.000,5.000,0
"07/04/06","02:10:38","AMMA06",68944.000,"cc",28309.188,6.00,2830.919,1,6,0.100,31424.000,0.200,29671.000,0.300,5323.000,0.500,1552.000,1.000,974.000,5.000,0
"07/04/06","02:10:44","AMMA06",69229.000,"cc",28273.231,6.00,2827.323,1,6,0.100,31513.000,0.200,29890.000,0.300,5336.000,0.500,1481.000,1.000,1009.000,5.000,0
"07/04/06","02:10:50","AMMA06",69107.000,"cc",28361.557,6.00,2836.156,1,6,0.100,31575.000,0.200,29574.000,0.300,5438.000,0.500,1543.000,1.000,976.000,5.000,1.000
"07/04/06","02:10:56","AMMA06",69110.000,"cc",28330.697,6.00,2833.070,1,6,0.100,31612.000,0.200,29752.000,0.300,5261.000,0.500,1477.000,1.000,1008.000,5.000,0
"07/04/06","02:11:02","AMMA06",68775.000,"cc",28299.264,6.00,2829.927,1,6,0.100,31222.000,0.200,29828.000,0.300,5280.000,0.500,1452.000,1.000,993.000,5.000,0
"07/04/06","02:11:08","AMMA06",68731.000,"cc",28294.264,6.00,2829.427,1,6,0.100,31452.000,0.200,29558.000,0.300,5184.000,0.500,1507.000,1.000,1030.000,5.000,0
"07/04/06","02:11:14","AMMA06",68967.000,"cc",28367.787,6.00,2836.779,1,6,0.100,31311.000,0.200,29789.000,0.300,5305.000,0.500,1545.000,1.000,1017.000,5.000,0
"07/04/06","02:11:20","AMMA06",68811.000,"cc",28307.676,6.00,2830.768,1,6,0.100,31418.000,0.200,29730.000,0.300,5111.000,0.500,1547.000,1.000,1004.000,5.000,1.000
"07/04/06","02:11:26","AMMA06",68695.000,"cc",28286.236,6.00,2828.624,1,6,0.100,31449.000,0.200,29422.000,0.300,5402.000,0.500,1418.000,1.000,1002.000,5.000,2.000
"07/04/06","02:11:32","AMMA06",68891.000,"cc",28296.170,6.00,2829.617,1,6,0.100,31209.000,0.200,29647.000,0.300,5459.000,0.500,1514.000,1.000,1061.000,5.000,1.000
"07/04/06","02:11:38","AMMA06",68602.000,"cc",28338.096,6.00,2833.810,1,6,0.100,31438.000,0.200,29394.000,0.300,5254.000,0.500,1514.000,1.000,1000.000,5.000,2.000
"07/04/06","02:11:44","AMMA06",68414.000,"cc",28306.039,6.00,2830.604,1,6,0.100,31296.000,0.200,29297.000,0.300,5308.000,0.500,1479.000,1.000,1032.000,5.000,2.000
"07/04/06","02:11:50","AMMA06",68349.000,"cc",28336.732,6.00,2833.673,1,6,0.100,30985.000,0.200,29475.000,0.300,5348.000,0.500,1533.000,1.000,1008.000,5.000,0
"07/04/06","02:11:56","AMMA06",68644.000,"cc",28307.193,6.00,2830.720,1,6,0.100,31297.000,0.200,29474.000,0.300,5319.000,0.500,1516.000,1.000,1037.000,5.000,1.000
"07/04/06","02:12:02","AMMA06",68758.000,"cc",28340.365,6.00,2834.037,1,6,0.100,31320.000,0.200,29654.000,0.300,5299.000,0.500,1514.000,1.000,971.000,5.000,0
"07/04/06","02:12:08","AMMA06",68638.000,"cc",28288.090,6.00,2828.809,1,6,0.100,31139.000,0.200,29673.000,0.300,5289.000,0.500,1510.000,1.000,1026.000,5.000,1.000
"07/04/06","02:12:14","AMMA06",68658.000,"cc",28268.482,6.00,2826.848,1,6,0.100,31187.000,0.200,29542.000,0.300,5440.000,0.500,1498.000,1.000,990.000,5.000,1.000
"07/04/06","02:12:20","AMMA06",68580.000,"cc",28284.229,6.00,2828.423,1,6,0.100,31242.000,0.200,29653.000,0.300,5205.000,0.500,1493.000,1.000,987.000,5.000,0
"07/04/06","02:12:26","AMMA06",68685.000,"cc",28343.309,6.00,2834.331,1,6,0.100,31382.000,0.200,29498.000,0.300,5326.000,0.500,1496.000,1.000,983.000,5.000,0
"07/04/06","02:12:32","AMMA06",68358.000,"cc",28357.518,6.00,2835.752,1,6,0.100,30939.000,0.200,29566.000,0.300,5374.000,0.500,1497.000,1.000,981.000,5.000,1.000
"07/04/06","02:12:38","AMMA06",69040.000,"cc",28309.473,6.00,2830.948,1,6,0.100,31837.000,0.200,29511.000,0.300,5221.000,0.500,1505.000,1.000,966.000,5.000,0
"07/04/06","02:12:44","AMMA06",68546.000,"cc",28284.121,6.00,2828.412,1,6,0.100,31651.000,0.200,29359.000,0.300,5107.000,0.500,1506.000,1.000,923.000,5.000,0
"07/04/06","02:12:50","AMMA06",68522.000,"cc",28312.857,6.00,2831.286,1,6,0.100,31339.000,0.200,29549.000,0.300,5193.000,0.500,1481.000,1.000,959.000,5.000,1.000
"07/04/06","02:12:56","AMMA06",68221.000,"cc",28317.133,6.00,2831.713,1,6,0.100,31421.000,0.200,29322.000,0.300,5102.000,0.500,1482.000,1.000,893.000,5.000,1.000
"07/04/06","02:13:02","AMMA06",68733.000,"cc",28319.023,6.00,2831.903,1,6,0.100,31773.000,0.200,29388.000,0.300,5050.000,0.500,1528.000,1.000,993.000,5.000,1.000
"07/04/06","02:13:08","AMMA06",68425.000,"cc",28325.240,6.00,2832.524,1,6,0.100,31638.000,0.200,29016.000,0.300,5185.000,0.500,1536.000,1.000,1049.000,5.000,1.000
"07/04/06","02:13:14","AMMA06",68697.000,"cc",28324.570,6.00,2832.457,1,6,0.100,31980.000,0.200,29102.000,0.300,5140.000,0.500,1465.000,1.000,1010.000,5.000,0
"07/04/06","02:13:20","AMMA06",68326.000,"cc",28325.717,6.00,2832.572,1,6,0.100,31433.000,0.200,29301.000,0.300,5112.000,0.500,1539.000,1.000,941.000,5.000,0
"07/04/06","02:13:26","AMMA06",68150.000,"cc",28331.875,6.00,2833.188,1,6,0.100,31931.000,0.200,28744.000,0.300,5040.000,0.500,1506.000,1.000,928.000,5.000,1.000
"07/04/06","02:13:32","AMMA06",68484.000,"cc",28300.670,6.00,2830.067,1,6,0.100,31779.000,0.200,29147.000,0.300,5028.000,0.500,1566.000,1.000,964.000,5.000,0
"07/04/06","02:13:38","AMMA06",68232.000,"cc",28329.383,6.00,2832.939,1,6,0.100,31804.000,0.200,28892.000,0.300,5052.000,0.500,1502.000,1.000,982.000,5.000,0
"07/04/06","02:13:44","AMMA06",68775.000,"cc",28343.731,6.00,2834.373,1,6,0.100,32105.000,0.200,29131.000,0.300,5010.000,0.500,1530.000,1.000,999.000,5.000,0
"07/04/06","02:13:50","AMMA06",68806.000,"cc",28317.711,6.00,2831.771,1,6,0.100,32021.000,0.200,29246.000,0.300,5038.000,0.500,1556.000,1.000,943.000,5.000,2.000
"07/04/06","02:13:56","AMMA06",68741.000,"cc",28259.283,6.00,2825.929,1,6,0.100,31980.000,0.200,29267.000,0.300,4965.000,0.500,1559.000,1.000,970.000,5.000,0